TimeCDT,TemperatureF,Dew PointF,Humidity,Sea Level PressureIn,VisibilityMPH,Wind Direction,Wind SpeedMPH,Gust SpeedMPH,PrecipitationIn,Events,Conditions,WindDirDegrees,DateUTC
12:00 AM,55.4,48.2,77,29.77,15.0,WSW,12.7,-,N/A,,Scattered Clouds,240,2013-09-27 05:00:00
1:00 AM,54,50,82,29.77,9,Calm,Calm,,,,,,2013-09-27 06:00:00
1:00 AM,53.6,48.2,82,29.78,15.0,SW,9.2,-,N/A,,Partly Cloudy,220,2013-09-27 06:00:00
2:00 AM,53.6,46.4,77,29.79,15.0,SW,10.4,-,N/A,,Partly Cloudy,230,2013-09-27 07:00:00
3:00 AM,51.8,44.6,76,29.79,15.0,SSW,8.1,-,N/A,,Clear,200,2013-09-27 08:00:00
4:00 AM,50.0,44.6,82,29.80,15.0,SW,8.1,-,N/A,,Clear,220,2013-09-27 09:00:00
5:00 AM,48.2,42.8,82,29.81,15.0,SSW,6.9,-,N/A,,Clear,200,2013-09-27 10:00:00
6:00 AM,44.6,42.8,93,29.81,15.0,South,8.1,-,N/A,,Clear,170,2013-09-27 11:00:00
7:00 AM,46,45,95,29.81,9,Calm,Calm,,,,,,2013-09-27 12:00:00
7:00 AM,46.4,42.8,87,29.82,15.0,South,8.1,-,N/A,,Scattered Clouds,190,2013-09-27 12:00:00
8:00 AM,46.4,42.8,87,29.80,15.0,SW,5.8,-,N/A,,Mostly Cloudy,230,2013-09-27 13:00:00
9:00 AM,48.2,44.6,87,29.81,15.0,SW,5.8,-,N/A,,Mostly Cloudy,220,2013-09-27 14:00:00
10:00 AM,50.0,44.6,82,29.84,15.0,SW,9.2,-,N/A,,Mostly Cloudy,220,2013-09-27 15:00:00
10:04 AM,50.0,44.6,82,29.84,15.0,SW,10.4,-,N/A,Rain,Light Rain Showers,220,2013-09-27 15:04:00
10:30 AM,51.8,46.4,82,29.83,15.0,SW,6.9,-,N/A,,Mostly Cloudy,220,2013-09-27 15:30:00
11:00 AM,53.6,46.4,77,29.82,15.0,WSW,9.2,-,N/A,,Scattered Clouds,250,2013-09-27 16:00:00
12:00 PM,57.2,48.2,72,29.79,15.0,NNW,3.5,-,N/A,,Mostly Cloudy,340,2013-09-27 17:00:00
1:00 PM,58,50,68,29.79,9,Calm,Calm,,,,Overcast,,2013-09-27 18:00:00
1:00 PM,57.2,48.2,72,29.80,15.0,NNW,5.8,-,N/A,,Overcast,340,2013-09-27 18:00:00
2:00 PM,59.0,48.2,67,29.80,15.0,NNW,2.3,-,N/A,,Overcast,330,2013-09-27 19:00:00
3:00 PM,59.0,48.2,67,29.77,15.0,WNW,5.8,-,N/A,,Overcast,300,2013-09-27 20:00:00
4:00 PM,57.2,48.2,72,29.77,15.0,North,5.8,-,N/A,,Overcast,360,2013-09-27 21:00:00
5:00 PM,57.2,46.4,67,29.76,15.0,NW,6.9,-,N/A,Rain,Light Rain Showers,310,2013-09-27 22:00:00
5:40 PM,55.4,46.4,72,29.77,15.0,WNW,8.1,-,N/A,,Overcast,300,2013-09-27 22:40:00
6:00 PM,55.4,48.2,77,29.76,15.0,NW,6.9,-,N/A,,Overcast,320,2013-09-27 23:00:00
6:05 PM,55.4,46.4,72,29.78,15.0,NW,6.9,-,N/A,Rain,Light Rain Showers,310,2013-09-27 23:05:00
6:55 PM,53.6,50.0,88,29.78,15.0,WNW,5.8,-,N/A,,Overcast,290,2013-09-27 23:55:00
7:00 PM,53,52,95,29.77,9,Calm,Calm,,,,Overcast,,2013-09-28 00:00:00
7:00 PM,53.6,50.0,88,29.78,15.0,NW,5.8,-,N/A,Rain,Light Rain Showers,320,2013-09-28 00:00:00
7:37 PM,53.6,50.0,88,29.78,15.0,WNW,3.5,-,N/A,Rain,Light Rain Showers,300,2013-09-28 00:37:00
8:00 PM,53.6,50.0,88,29.77,15.0,NNW,4.6,-,N/A,Rain,Light Rain Showers,330,2013-09-28 01:00:00
9:00 PM,51.8,50.0,94,29.78,15.0,NW,6.9,-,N/A,Rain,Light Rain Showers,320,2013-09-28 02:00:00
9:39 PM,53.6,48.2,82,29.78,15.0,NW,4.6,-,N/A,,Overcast,310,2013-09-28 02:39:00
10:00 PM,51.8,48.2,88,29.80,15.0,West,5.8,-,N/A,,Overcast,280,2013-09-28 03:00:00
11:00 PM,51.8,48.2,88,29.80,15.0,West,5.8,-,N/A,,Overcast,280,2013-09-28 04:00:00